[[{"header":{"parameterUnit":"m.s-1","parameterCategory":1,"la1":30.2991,"la2":30.254,"lo1":-89.0895,"lo2":-89.0444,"dy":0.0017,"dx":0.0017,"nx":28,"ny":28,"refTime":"2024-07-04T03:00:00:Z","depth":0,"parameterNumber":2,"parameterNumberName":"U-component_of_WINDS"},"data":[0,0,0,0,0,0,0,0,0,0,0,0,0,0,0,0,0,0,0,0,0,0,0,0,0,0,0,0,0,0,0,0,0,0,0,0,0,0,0,0,0,0,0,0,0,0,0,0,0,0,0,0,0,0,0,0,0,0,1.8934,1.8933,0,1.8917,1.8916,1.8916,1.8836,1.8835,1.8833,1.8831,1.8817,1.8818,1.8819,0,0,0,0,0,0,0,0,0,0,0,0,0,1.8898,1.8899,1.8934,1.8933,1.8933,1.8917,1.8916,1.8916,1.8837,1.8834,1.8832,1.883,1.8816,1.8818,1.882,0,0,0,0,0,0,0,0,0,0,0,0,0,1.8901,1.89,1.8934,1.8892,1.8888,1.8917,1.8916,1.8916,1.8837,1.8834,1.8832,1.8829,1.8816,1.8818,1.882,1.8889,0,0,1.8826,1.8827,0,0,0,0,0,0,0,0,1.8901,1.8902,1.8898,1.8894,1.889,1.8876,1.8899,1.8907,1.8838,1.8857,1.8831,1.8828,1.8839,1.8839,1.8842,1.8889,1.8888,1.8826,1.8828,1.8828,1.8829,0,0,0,0,0,0,0,1.8901,1.8903,1.8927,1.8898,1.8893,1.8874,1.8871,1.89,1.8864,1.8855,1.8849,1.8848,1.8836,1.884,1.8841,1.8888,1.8826,1.8828,1.8829,1.883,1.8987,1.899,0,0,0,0,0,0,1.8906,1.8903,1.8927,1.8926,1.8889,1.8877,1.8874,1.8883,1.8863,1.8857,1.885,1.8844,1.8838,1.8839,1.884,1.8917,1.8828,1.883,1.8832,1.8984,1.8988,1.8991,0,0,0,0,0,0,1.8906,1.8909,1.8928,1.8913,1.8914,1.888,1.8892,1.8884,1.8888,1.886,1.8853,1.8861,1.8836,1.8837,1.8877,1.8916,1.8831,1.8833,1.8981,1.8985,1.8989,1.9074,0,0,0,0,0,0,1.8905,1.891,1.8936,1.8914,1.8915,1.8965,1.8894,1.8886,1.8892,1.8883,1.8868,1.8863,1.8834,1.8874,1.8879,1.8917,1.8835,1.8977,1.8983,1.8988,1.9068,1.9081,1.9093,0,0,0,0,0,1.8904,1.8962,1.8937,1.8941,1.8947,1.8967,1.8968,1.8932,1.8895,1.8921,1.8902,1.8863,1.8911,1.8879,1.8883,1.8923,1.8974,1.8981,1.8987,1.9062,1.9079,1.9092,0,0,0,0,0,0,1.8991,1.8958,1.8931,1.8983,1.8978,1.8954,1.8985,1.8951,1.8958,1.895,1.8907,1.8904,1.8949,1.894,1.8904,1.8988,1.8936,1.8944,1.8991,1.9007,1.9019,1.9019,1.8837,0,0,0,0,0,1.9015,1.9034,1.9005,1.9054,1.9053,1.902,1.9027,1.9,1.8994,1.8992,1.8976,1.8972,1.8986,1.8996,1.9007,1.9067,1.9061,1.9096,1.9109,1.9119,1.9126,1.9154,1.9168,1.9012,1.9012,1.9012,0,0,1.9067,1.9052,1.9067,1.9071,1.9064,1.9084,1.9019,1.9043,1.9058,1.8996,1.9031,1.9019,1.9012,1.9061,1.9081,1.9055,1.9167,1.9127,1.9136,1.9137,1.9162,1.9177,1.919,1.9017,1.9016,1.9015,0,0,1.9172,1.9163,1.9201,1.9195,1.9184,1.9161,1.917,1.915,1.914,1.9174,1.9127,1.9144,1.9169,1.9165,1.9166,1.9266,1.923,1.9271,1.9335,1.9363,1.9375,1.9386,1.9419,1.9432,1.9279,1.9279,1.9279,0,1.9238,1.9265,1.9225,1.9252,1.9254,1.9197,1.9235,1.9231,1.9226,1.9229,1.9199,1.9227,1.9219,1.9264,1.9288,1.9292,1.93,1.9272,1.9377,1.9387,1.9396,1.9428,1.9441,1.9284,1.9283,1.9283,1.9282,0,1.9346,1.9366,1.9398,1.9391,1.9398,1.943,1.9394,1.9406,1.9378,1.9358,1.9392,1.938,1.9386,1.9395,1.9369,1.9436,1.942,1.9384,1.9331,1.9417,1.9445,1.9457,1.9291,1.9289,1.9288,1.9286,0,0,1.9505,1.9474,1.9486,1.9481,1.9464,1.9479,1.9508,1.9513,1.9522,1.952,1.9543,1.9564,1.953,1.9531,1.9504,1.9529,1.9606,1.949,1.9489,1.951,1.9677,1.9702,1.9717,1.9582,1.9584,1.9586,1.9676,0,1.9602,1.9649,1.9613,1.9666,1.9682,1.9628,1.9653,1.9645,1.9627,1.9639,1.9619,1.9634,1.9589,1.9589,1.9611,1.9592,1.9638,1.9585,1.9602,1.9603,1.9604,1.9732,1.976,1.9846,1.9688,1.969,1.9691,0,1.9723,1.9723,1.9778,1.9754,1.976,1.9783,1.9783,1.9795,1.9785,1.977,1.977,1.9736,1.9762,1.9711,1.9746,1.9711,1.9715,1.9707,1.9709,1.9708,1.9651,1.9733,1.9873,1.9885,1.9709,1.9707,1.9706,0,1.983,1.9845,1.9878,1.9876,1.985,1.9867,1.9858,1.9845,1.9849,1.9849,1.9851,1.9856,1.9858,1.9862,1.9829,1.9795,1.9868,1.9814,1.9855,1.9856,1.9872,1.9871,2.0013,1.9879,1.9879,1.9878,1.9878,0,1.9941,1.9976,1.9925,1.9946,1.9983,1.994,1.9978,1.9963,1.9951,1.9968,1.9922,1.9939,1.9895,1.9907,1.9882,1.9914,1.9916,1.9904,1.9896,1.9907,1.9908,1.9908,1.9901,1.9882,1.9881,1.988,1.988,0,2.0067,2.0034,2.0067,2.0039,2.0033,2.0061,2.0037,2.0055,2.0033,2.0055,2.0057,2.0023,2.0035,2.0003,2.001,1.9993,2.0038,2.0022,2.0041,2.0035,2.0077,2.0073,2.0223,2.0239,2.0097,2.0098,2.0099,0,2.014,2.0165,2.0139,2.0145,2.0137,2.015,2.0153,2.0112,2.0117,2.0106,2.0125,2.0132,2.0136,2.0157,2.0133,2.0138,2.012,2.0172,2.0121,2.013,2.0118,2.0116,2.0118,2.0183,2.0184,2.0186,2.0187,0,2.0271,2.0253,2.0258,2.0258,2.0262,2.0261,2.0256,2.0264,2.022,2.0229,2.0238,2.0241,2.0247,2.0254,2.0253,2.0244,2.0208,2.0203,2.0213,2.0223,2.0232,2.0225,2.0068,2.02,2.0199,2.0198,2.0197,2.0197,2.037,2.0389,2.0372,2.038,2.0371,2.0367,2.0381,2.036,2.0367,2.0367,2.0343,2.0358,2.0345,2.034,2.0334,2.0345,2.0321,2.0335,2.0338,2.0342,2.0348,2.0231,2.0345,2.0345,2.0344,2.0344,2.0343,0,2.0497,2.0483,2.049,2.0483,2.0489,2.0453,2.0445,2.0452,2.0465,2.0456,2.0459,2.047,2.0476,2.0452,2.0455,2.0468,2.0452,2.047,2.0468,2.0466,2.037,2.0361,2.0483,2.0483,2.0483,2.0483,2.0483,2.0483,2.0563,2.0591,2.0571,2.0595,2.0581,2.0593,2.0591,2.0587,2.0579,2.0592,2.0596,2.058,2.0565,2.0566,2.057,2.0562,2.0565,2.0589,2.0576,2.0487,2.0473,2.046,2.0451,2.059,2.059,2.067,2.0671,2.0672]},{"header":{"parameterUnit":"m.s-1","parameterCategory":1,"la1":30.2991,"la2":30.254,"lo1":-89.0895,"lo2":-89.0444,"dy":0.0017,"dx":0.0017,"nx":28,"ny":28,"refTime":"2024-07-04T03:00:00:Z","depth":0,"parameterNumber":3,"parameterNumberName":"V-component_of_WINDS"},"data":[0,0,0,0,0,0,0,0,0,0,0,0,0,0,0,0,0,0,0,0,0,0,0,0,0,0,0,0,0,0,0,0,0,0,0,0,0,0,0,0,0,0,0,0,0,0,0,0,0,0,0,0,0,0,0,0,0,0,5.1111,5.1113,0,5.1236,5.1238,5.1239,5.1229,5.1227,5.1226,5.1224,5.1345,5.135,5.1354,0,0,0,0,0,0,0,0,0,0,0,0,0,5.0857,5.0862,5.1111,5.1113,5.1114,5.1236,5.1238,5.1239,5.123,5.1227,5.1225,5.1223,5.1343,5.1349,5.1355,0,0,0,0,0,0,0,0,0,0,0,0,0,5.0973,5.0864,5.1111,5.1124,5.1127,5.1236,5.1238,5.124,5.123,5.1227,5.1225,5.1222,5.1341,5.1348,5.1356,5.1457,0,0,5.1378,5.1382,0,0,0,0,0,0,0,0,5.0967,5.0983,5.1121,5.1124,5.1127,5.1215,5.1192,5.1312,5.1231,5.1191,5.1224,5.1221,5.1303,5.1314,5.1343,5.1463,5.1468,5.1379,5.1383,5.1387,5.1389,0,0,0,0,0,0,0,5.0959,5.0977,5.116,5.1123,5.1126,5.1122,5.1135,5.1215,5.1261,5.1194,5.1194,5.1209,5.1304,5.1336,5.1346,5.147,5.1379,5.1385,5.139,5.1393,5.1677,5.168,0,0,0,0,0,0,5.0949,5.097,5.1157,5.1164,5.1038,5.1129,5.1144,5.1189,5.126,5.1268,5.1211,5.1208,5.1324,5.1337,5.135,5.1472,5.1387,5.1394,5.1398,5.1674,5.1678,5.1681,0,0,0,0,0,0,5.0943,5.0965,5.1151,5.1067,5.1091,5.1136,5.1187,5.1193,5.1225,5.1273,5.128,5.1236,5.1323,5.1339,5.1431,5.1476,5.1397,5.1404,5.167,5.1675,5.1679,5.1717,0,0,0,0,0,0,5.0936,5.0963,5.1004,5.1069,5.1095,5.1232,5.119,5.1197,5.1238,5.1235,5.1298,5.1305,5.1322,5.142,5.1438,5.1485,5.1409,5.1666,5.1672,5.1678,5.1712,5.1723,5.1732,0,0,0,0,0,5.0927,5.1009,5.1006,5.1029,5.1148,5.1235,5.125,5.1269,5.1242,5.1282,5.1313,5.1303,5.1469,5.1429,5.145,5.1499,5.1664,5.1671,5.1678,5.1708,5.1721,5.1732,0,0,0,0,0,0,5.0946,5.1017,5.1015,5.1121,5.1172,5.1233,5.1284,5.1283,5.1341,5.1336,5.1355,5.1369,5.146,5.1489,5.1444,5.16,5.1562,5.1573,5.1578,5.1591,5.16,5.159,5.1416,0,0,0,0,0,5.0963,5.1031,5.1088,5.1176,5.1202,5.1239,5.1278,5.1288,5.1341,5.1362,5.14,5.145,5.1512,5.1553,5.1614,5.1717,5.1729,5.1761,5.1771,5.1779,5.1788,5.1842,5.1856,5.1704,5.1704,5.1704,0,0,5.0998,5.1045,5.1086,5.1181,5.1222,5.1289,5.1257,5.1329,5.1378,5.1372,5.1461,5.1491,5.1547,5.1644,5.1689,5.1671,5.1833,5.1788,5.1793,5.1798,5.1851,5.1865,5.1878,5.1709,5.1708,5.1707,0,0,5.1095,5.1139,5.1216,5.1258,5.1321,5.1345,5.1364,5.1426,5.1446,5.1536,5.1532,5.1589,5.1698,5.1738,5.1773,5.1886,5.1878,5.1905,5.1955,5.2008,5.202,5.203,5.2069,5.2082,5.1914,5.1914,5.1914,0,5.1129,5.1233,5.1255,5.1328,5.1369,5.1369,5.1445,5.1485,5.1563,5.159,5.157,5.1706,5.1744,5.185,5.1877,5.1906,5.1926,5.1897,5.2017,5.2028,5.2038,5.2074,5.2089,5.1917,5.1916,5.1916,5.1916,0,5.127,5.1342,5.1396,5.1475,5.1522,5.1596,5.1627,5.1672,5.1678,5.1704,5.1794,5.1841,5.191,5.1936,5.1943,5.2043,5.2029,5.2013,5.1974,5.2055,5.2089,5.2104,5.192,5.1919,5.1919,5.1918,0,0,5.1382,5.1473,5.1492,5.1527,5.1597,5.1651,5.1725,5.1795,5.1832,5.1887,5.1947,5.2039,5.2024,5.2064,5.2074,5.2121,5.2205,5.2099,5.21,5.2115,5.2316,5.2326,5.2342,5.2202,5.2205,5.2207,5.231,0,5.1484,5.1618,5.164,5.1755,5.182,5.1821,5.1885,5.1933,5.1959,5.2016,5.2044,5.2108,5.2085,5.2109,5.2155,5.2185,5.2245,5.2178,5.2255,5.2258,5.2239,5.2361,5.2372,5.2468,5.2324,5.2327,5.2328,0,5.1622,5.1682,5.1805,5.1865,5.1893,5.1951,5.2016,5.2072,5.2126,5.2141,5.2186,5.2191,5.2265,5.2225,5.2326,5.228,5.2312,5.2332,5.2336,5.2342,5.2296,5.2368,5.2499,5.2513,5.235,5.2348,5.2347,0,5.1688,5.18,5.1887,5.1918,5.1991,5.2031,5.2063,5.2115,5.2155,5.2212,5.2238,5.2302,5.2336,5.2384,5.2406,5.2375,5.2505,5.2467,5.2517,5.2516,5.2542,5.254,5.2678,5.2567,5.2567,5.2567,5.2566,0,5.1799,5.1873,5.1918,5.1971,5.2054,5.2078,5.2158,5.2189,5.2235,5.2293,5.2297,5.2351,5.2377,5.2434,5.2451,5.2531,5.2547,5.2559,5.2563,5.2558,5.2556,5.2578,5.2571,5.2571,5.257,5.2569,5.2568,0,5.1886,5.192,5.2015,5.2077,5.2094,5.2152,5.2204,5.2255,5.2281,5.2354,5.2372,5.2412,5.248,5.2507,5.2588,5.26,5.2691,5.269,5.2673,5.2674,5.2721,5.2716,5.2877,5.2898,5.2775,5.2776,5.2777,0,5.1954,5.2011,5.2081,5.2121,5.2155,5.2219,5.2261,5.2286,5.2329,5.2396,5.2438,5.2505,5.2561,5.2668,5.2702,5.2765,5.2764,5.2816,5.2773,5.2766,5.2762,5.2758,5.2762,5.2823,5.2824,5.2825,5.2826,0,5.207,5.2084,5.2145,5.2212,5.2263,5.2316,5.2368,5.24,5.2433,5.2481,5.2551,5.2594,5.2678,5.2744,5.2809,5.2839,5.2837,5.284,5.2854,5.2849,5.2836,5.2842,5.2692,5.2835,5.2835,5.2834,5.2833,5.2833,5.2148,5.2198,5.2255,5.2323,5.2365,5.2414,5.2465,5.2498,5.2557,5.2629,5.2641,5.2715,5.2766,5.2853,5.2886,5.2943,5.2929,5.295,5.2955,5.296,5.2962,5.2829,5.2955,5.2954,5.2954,5.2954,5.2954,0,5.2262,5.2299,5.2361,5.2435,5.2488,5.2485,5.2542,5.2586,5.2652,5.2702,5.2757,5.2836,5.29,5.2941,5.3005,5.3043,5.3043,5.3059,5.3055,5.3061,5.2972,5.2952,5.3057,5.3057,5.3057,5.3057,5.3057,5.3057,5.2327,5.2413,5.2433,5.2538,5.2574,5.2649,5.2681,5.2725,5.2765,5.2854,5.2909,5.2936,5.2981,5.3049,5.3107,5.3117,5.3139,5.3155,5.3164,5.3079,5.3068,5.3058,5.3039,5.316,5.3161,5.3249,5.3249,5.325]}]]